Regional Weather Roundup
Issued by NWS

Home | Current Version | Previous Version | Graphics & Text | Print | Product List | Glossary Off
Versions: 1 2 3 4 5 6 7 8 9 10 11 12 13 14 15 16 17 18 19 20 21 22 23 24 25 26 27 28 29 30 31 32 33 34 35 36 37 38 39 40 41 42 43 44 45 46 47 48 49 50

000
ASUS43 KFSD 051010
RWRSD

WEATHER ROUNDUP FOR SOUTH DAKOTA
NATIONAL WEATHER SERVICE SIOUX FALLS SD
400 AM CST THU MAR 05 2015

NOTE: "FAIR" INDICATES FEW OR NO CLOUDS BELOW 12,000 FEET WITH NO
SIGNIFICANT WEATHER AND/OR OBSTRUCTIONS TO VISIBILITY.


SDZ001>005-009-010-012>017-051100-
NORTHWEST AND NORTH CENTRAL SOUTH DAKOTA

CITY           SKY/WX    TMP DP  RH WIND       PRES   REMARKS
BUFFALO          N/A      2  -5  72 SE6       30.04F WCI  -9
FAITH            N/A     -1  -9  68 S17       30.18F WCI -22
MOBRIDGE       CLEAR     -1  -8  72 SE8       30.27F WCI -15
$$

SDZ012>016-024>037-041>051-057-063-072>074-051100-
SOUTHWEST AND SOUTH CENTRAL SOUTH DAKOTA

CITY           SKY/WX    TMP DP  RH WIND       PRES   REMARKS
RAPID CTY ARPT PTCLDY     4  -1  80 S5        30.16F WCI  -5
PIERRE         MOCLDY    -6 -10  83 SE8       30.33F WCI -21
CUSTER         CLEAR      9  -3  58 W6        30.02F WCI  -1
ELLSWORTH AFB  PTCLDY     6  -1  74 SW6       30.14F WCI  -5
PHILIP         PTCLDY    -6 -12  75 CALM      30.27F
PINE RIDGE     PTCLDY    -5 -10  79 NW3       30.21F
SPEARFISH      FAIR      14   0  52 MISG      30.08F
WINNER         FAIR       6  -5  60 SW10      30.32F WCI  -9
$$

SDZ004>011-016>023-039-040-051100-
NORTHEAST SOUTH DAKOTA

CITY           SKY/WX    TMP DP  RH WIND       PRES   REMARKS
ABERDEEN       PTCLDY   -18 -24  74 S7        30.41F WCI -35
WATERTOWN      PTCLDY   -14 -19  79 S3        30.35F
$$

SDZ017-020-022-023-036>040-048>070-051100-
SOUTHEAST SOUTH DAKOTA

CITY           SKY/WX    TMP DP  RH WIND       PRES   REMARKS
SIOUX FALLS    CLEAR     -9 -15  75 CALM      30.42F
HURON          MOCLDY    -8 -14  74 S5        30.43F WCI -19
CHAMBERLAIN    MOCLDY    -8 -11  85 SE6       30.37F WCI -21
MITCHELL       CLEAR     -6 -10  83 CALM      30.45F
YANKTON        CLEAR     -4 -13  65 CALM      30.47S
$$

ABBREVIATIONS USED IN REMARKS
   TC - TEMPERATURE IN CELSIUS
  WCI - WIND CHILL INDEX
   HX - HEAT INDEX
  VSB - VISIBILITY




USA.gov is the U.S. government's official web portal to all federal, state and local government web resources and services.